| time (UTC) | temp F | wind direction | speed MPH | gust MPH | rain 1hr in | rain 24hr in | rain mn in | humidity % | barometer mb |
| 20260505001440 | 74 | 244 | 1.0 | 8.0 | 0.00 | 0.00 | 0.00 | 60 | 1004.2 |
| 20260505000440 | 75 | 254 | 1.0 | 3.0 | 0.00 | 0.00 | 0.00 | 57 | 1004.3 |
| 20260504234302 | 76 | 275 | 2.0 | 10.0 | 0.00 | 0.00 | 0.00 | 53 | 1004.1 |
| 20260504233256 | 77 | 196 | 2.0 | 10.0 | 0.00 | 0.00 | 0.00 | 52 | 1004.1 |
| 20260504232258 | 78 | 279 | 1.0 | 6.0 | 0.00 | 0.00 | 0.00 | 53 | 1004.2 |
| 20260504231236 | 78 | 320 | 4.0 | 16.0 | 0.00 | 0.00 | 0.00 | 51 | 1004.2 |
| 20260504230233 | 78 | 238 | 4.0 | 16.0 | 0.00 | 0.00 | 0.00 | 51 | 1004.3 |
| 20260504225253 | 78 | 234 | 3.0 | 11.0 | 0.00 | 0.00 | 0.00 | 52 | 1004.2 |
| 20260504224254 | 79 | 216 | 4.0 | 12.0 | 0.00 | 0.00 | 0.00 | 50 | 1004.3 |
| 20260504223221 | 79 | 293 | 2.0 | 12.0 | 0.00 | 0.00 | 0.00 | 53 | 1004.2 |
| 20260504222201 | 79 | 273 | 4.0 | 12.0 | 0.00 | 0.00 | 0.00 | 52 | 1004.2 |
| 20260504221202 | 79 | 171 | 3.0 | 11.0 | 0.00 | 0.00 | 0.00 | 53 | 1004.3 |
| 20260504220130 | 79 | 205 | 3.0 | 14.0 | 0.00 | 0.00 | 0.00 | 53 | 1004.4 |
| 20260504214056 | 79 | 303 | 4.0 | 11.0 | 0.00 | 0.00 | 0.00 | 54 | 1004.5 |
| 20260504213036 | 80 | 246 | 3.0 | 17.0 | 0.00 | 0.00 | 0.00 | 55 | 1004.7 |
| 20260504212047 | 80 | 278 | 4.0 | 17.0 | 0.00 | 0.00 | 0.00 | 53 | 1004.6 |
| 20260504211046 | 80 | 331 | 3.0 | 14.0 | 0.00 | 0.00 | 0.00 | 55 | 1004.8 |
| 20260504210054 | 80 | 276 | 3.0 | 14.0 | 0.00 | 0.00 | 0.00 | 56 | 1004.9 |
| 20260504205114 | 79 | 250 | 4.0 | 13.0 | 0.00 | 0.00 | 0.00 | 54 | 1005.0 |
| 20260504202921 | 79 | 296 | 5.0 | 14.0 | 0.00 | 0.00 | 0.00 | 53 | 1005.4 |
| 20260504201848 | 79 | 274 | 3.0 | 10.0 | 0.00 | 0.00 | 0.00 | 56 | 1005.5 |
| 20260504200852 | 79 | 316 | 4.0 | 14.0 | 0.00 | 0.00 | 0.00 | 52 | 1005.6 |
| 20260504194729 | 79 | 260 | 5.0 | 14.0 | 0.00 | 0.00 | 0.00 | 58 | 1005.9 |
| 20260504193752 | 79 | 238 | 4.0 | 11.0 | 0.00 | 0.00 | 0.00 | 54 | 1005.9 |
| 20260504192732 | 79 | 23 | 3.0 | 12.0 | 0.00 | 0.00 | 0.00 | 56 | 1005.9 |
| 20260504190529 | 78 | 314 | 5.0 | 18.0 | 0.00 | 0.00 | 0.00 | 56 | 1006.1 |
| 20260504185525 | 78 | 312 | 6.0 | 18.0 | 0.00 | 0.00 | 0.00 | 52 | 1006.2 |
| 20260504184450 | 78 | 184 | 4.0 | 15.0 | 0.00 | 0.00 | 0.00 | 55 | 1006.2 |
| 20260504183514 | 78 | 273 | 4.0 | 15.0 | 0.00 | 0.00 | 0.00 | 55 | 1006.3 |
| 20260504182516 | 78 | 5 | 4.0 | 15.0 | 0.00 | 0.00 | 0.00 | 51 | 1006.2 |
| 20260504181514 | 78 | 302 | 4.0 | 15.0 | 0.00 | 0.00 | 0.00 | 54 | 1006.2 |
| 20260504180506 | 77 | 221 | 5.0 | 13.0 | 0.00 | 0.00 | 0.00 | 53 | 1006.4 |
| 20260504175442 | 77 | 188 | 5.0 | 15.0 | 0.00 | 0.00 | 0.00 | 55 | 1006.6 |
| 20260504174426 | 77 | 116 | 6.0 | 15.0 | 0.00 | 0.00 | 0.00 | 54 | 1006.7 |
| 20260504173358 | 77 | 288 | 5.0 | 21.0 | 0.00 | 0.00 | 0.00 | 53 | 1006.8 |
| 20260504172336 | 76 | 315 | 6.0 | 21.0 | 0.00 | 0.00 | 0.00 | 54 | 1006.8 |
| 20260504171349 | 76 | 190 | 5.0 | 20.0 | 0.00 | 0.00 | 0.00 | 56 | 1006.9 |
| 20260504170353 | 76 | 327 | 5.0 | 20.0 | 0.00 | 0.00 | 0.00 | 57 | 1006.8 |
| 20260504160223 | 74 | 202 | 4.0 | 14.0 | 0.00 | 0.00 | 0.00 | 56 | 1007.6 |
| 20260504150204 | 71 | 295 | 3.0 | 12.0 | 0.00 | 0.00 | 0.00 | 61 | 1008.3 |
| 20260504141045 | 68 | 301 | 4.0 | 14.0 | 0.00 | 0.00 | 0.00 | 62 | 1008.9 |
| 20260504130732 | 64 | 246 | 1.0 | 6.0 | 0.00 | 0.00 | 0.00 | 70 | 1009.3 |
| 20260504100103 | 55 | 257 | 0.0 | 0.0 | 0.00 | 0.00 | 0.00 | 82 | 1009.9 |
| 20260504090124 | 55 | 226 | 0.0 | 1.0 | 0.00 | 0.00 | 0.00 | 85 | 1010.0 |
| 20260504050408 | 57 | 274 | 0.0 | 2.0 | 0.00 | 0.00 | 0.00 | 81 | 1011.7 |
| 20260504045429 | 57 | 216 | 0.0 | 3.0 | 0.00 | 0.00 | 0.00 | 82 | 1011.8 |
| 20260504044405 | 56 | 208 | 0.0 | 2.0 | 0.00 | 0.00 | 0.00 | 82 | 1011.8 |
| 20260504043333 | 56 | 227 | 0.0 | 0.0 | 0.00 | 0.00 | 0.00 | 83 | 1011.9 |
| 20260504042321 | 56 | 227 | 0.0 | 0.0 | 0.00 | 0.00 | 0.00 | 81 | 1012.1 |
| 20260504041313 | 56 | 242 | 0.0 | 1.0 | 0.00 | 0.00 | 0.00 | 83 | 1012.1 |
| 20260504040248 | 57 | 215 | 0.0 | 1.0 | 0.00 | 0.00 | 0.00 | 82 | 1012.2 |
| 20260504035247 | 56 | 244 | 0.0 | 0.0 | 0.00 | 0.00 | 0.00 | 81 | 1012.3 |
| 20260504034255 | 56 | 221 | 0.0 | 0.0 | 0.00 | 0.00 | 0.00 | 82 | 1012.3 |
| 20260504033254 | 56 | 221 | 0.0 | 0.0 | 0.00 | 0.00 | 0.00 | 83 | 1012.4 |
| 20260504032232 | 56 | 248 | 0.0 | 0.0 | 0.00 | 0.00 | 0.00 | 82 | 1012.5 |
| 20260504031215 | 56 | 248 | 0.0 | 0.0 | 0.00 | 0.00 | 0.00 | 83 | 1012.4 |
| 20260504025103 | 57 | 248 | 0.0 | 0.0 | 0.00 | 0.00 | 0.00 | 81 | 1012.5 |
| 20260504024030 | 58 | 271 | 0.0 | 0.0 | 0.00 | 0.00 | 0.00 | 80 | 1012.4 |
| 20260504023043 | 58 | 271 | 0.0 | 0.0 | 0.00 | 0.00 | 0.00 | 78 | 1012.3 |
| 20260504022106 | 59 | 271 | 0.0 | 0.0 | 0.00 | 0.00 | 0.00 | 77 | 1012.3 |
| 20260504021114 | 60 | 271 | 0.0 | 0.0 | 0.00 | 0.00 | 0.00 | 75 | 1012.4 |
| 20260504015036 | 62 | 271 | 0.0 | 0.0 | 0.00 | 0.00 | 0.00 | 71 | 1012.2 |
| 20260504014100 | 63 | 271 | 0.0 | 0.0 | 0.00 | 0.00 | 0.00 | 69 | 1012.2 |
| 20260504013039 | 64 | 271 | 0.0 | 0.0 | 0.00 | 0.00 | 0.00 | 67 | 1012.1 |
| 20260504012007 | 65 | 271 | 0.0 | 0.0 | 0.00 | 0.00 | 0.00 | 64 | 1012.0 |
| 20260504010959 | 67 | 271 | 0.0 | 0.0 | 0.00 | 0.00 | 0.00 | 62 | 1012.1 |
| 20260504005955 | 68 | 290 | 0.0 | 0.0 | 0.00 | 0.00 | 0.00 | 61 | 1012.0 |
| 20260504004952 | 70 | 228 | 0.0 | 0.0 | 0.00 | 0.00 | 0.00 | 57 | 1012.1 |
| 20260504004014 | 71 | 228 | 0.0 | 1.0 | 0.00 | 0.00 | 0.00 | 55 | 1012.1 |
| 20260504003020 | 72 | 248 | 0.0 | 1.0 | 0.00 | 0.00 | 0.00 | 53 | 1012.1 |